Tracking 30995 objects as of 5-Jul-2025
HD Live streaming from Space Station
objects crossing your sky now

COSMOS 839 DEB

Track COSMOS 839 DEB now!
10-day predictions


NORAD ID: 10439
Int'l Code: 1976-067Q
Perigee: 1,049.2 km
Apogee: 2,107.5 km
Inclination: 65.8 °
Period: 117.6 minutes
Semi major axis: 7949 km
RCS: 0.145 m2 (medium)
Launch date: July 8, 1976
Source: Commonwealth of Independent States (former USSR) (CIS)
Launch site: PLESETSK MISSILE AND SPACE COMPLEX (PKMTR)

Note: This is SATELLITE DEBRIS
Your satellite tracking list
Your tracking list is empty




NASA's NSSDC Master Catalog

Two Line Element Set (TLE):
1 10439U 76067Q   25186.60737933 -.00000095  00000-0 -18038-3 0  9992
2 10439  65.7901 336.9035 0665702 350.4907  88.5509 12.24915666190502
Source of the keplerian elements: AFSPC